Regional Weather Roundup
Issued by NWS

Home | Current Version | Previous Version | Text Only | Print | Product List | Glossary On
Versions: 1 2 3 4 5 6 7 8 9 10 11 12 13 14 15 16 17 18 19 20 21 22 23 24 25 26 27 28 29 30 31 32 33 34 35 36 37 38 39 40 41 42 43 44 45 46 47 48 49 50
000
ASUS43 KLSX 281359
RWRMO

WEATHER SUMMARY FOR MISSOURI
NATIONAL WEATHER SERVICE SPRINGFIELD MO
800 AM CST SAT FEB 28 2015

NOTE: "FAIR" INDICATES FEW OR NO CLOUDS BELOW 12,000 FEET WITH NO
       SIGNIFICANT WEATHER AND/OR OBSTRUCTIONS TO VISIBILITY.
       CURRENT SKY AND/OR WEATHER CONDITIONS ARE NOT AVAILABLE FOR
       CHILLICOTHE AND FARMINGTON.

MOZ001>031-035>038-043-044-053-054-281500-
...NORTHERN AND WESTERN MISSOURI...

CITY           SKY/WX    TMP DP  RH WIND       PRES   REMARKS
KANSAS CTY INT PTSUNNY   17   9  70 SE10      30.50S WCI   5
KANSAS C DTWN  CLOUDY    19  10  68 E9        30.52S WCI   8
LEE`S SUMMIT   PTSUNNY   18   9  68 E9        30.49F WCI   7
ST JOSEPH      MOSUNNY   16   9  74 E5        30.53F WCI   9
CHILLICOTHE      N/A     14   5  67 E6        30.57F WCI   5
KIRKSVILLE     SUNNY     12   4  70 SE8       30.58S WCI   0

$$
MOZ066>068-077>081-088>096-101>105-281500-
...SOUTHWEST MISSOURI...

CITY           SKY/WX    TMP DP  RH WIND       PRES   REMARKS
SPRINGFIELD    LGT SNOW  20  14  77 SE12      30.47S WCI   8
JOPLIN         CLOUDY    21  15  78 E7        30.47S WCI  12

$$
MOZ032>034-039>042-045>050-055>058-069>072-281500-
...CENTRAL MISSOURI...

CITY           SKY/WX    TMP DP  RH WIND       PRES   REMARKS
COLUMBIA       CLOUDY    17  11  77 E10       30.57S WCI   5
JEFFERSON CITY CLOUDY    19  10  68 E9        30.60F WCI   8
ROLLA          CLOUDY    18   9  68 E10       30.53S WCI   6
SEDALIA        CLOUDY    21   8  57 SE13      30.54F WCI   9
OSAGE BEACH    CLOUDY    21   7  53 SE9       30.54F WCI  11

$$
MOZ051-052-059>065-281500-
...EAST CENTRAL MISSOURI...

CITY           SKY/WX    TMP DP  RH WIND       PRES   REMARKS
ST LOUIS INTL  CLOUDY    18   7  62 E8        30.65R WCI   8
SPIRIT OF STL  CLOUDY    18   5  57 E6        30.64S WCI  10
ST CHARLES     CLOUDY    15   7  70 E10       30.66S WCI   2

$$
MOZ072>076-082>087-097>100-106>115-281500-
...SOUTH CENTRAL AND SOUTHEAST MISSOURI...

CITY           SKY/WX    TMP DP  RH WIND       PRES   REMARKS
CAPE GIRARDEAU CLOUDY    21  11  65 NE8       30.64S WCI  11
FARMINGTON     CLOUDY    18  10  73 E7        30.62R WCI   8
POPLAR BLUFF   LGT SNOW  20  13  74 NE9       30.62R WCI   9
WEST PLAINS    CLOUDY    18  12  77 E9        30.52S WCI   7

$$



USA.gov is the U.S. government's official web portal to all federal, state and local government web resources and services.